FLOCK 4P-5 (44818 NORAD) Tracking and Keplerian Element Data

This shows tracking and keplerian element data for the satellite.

Feedback or suggestion? Click here.




ElementValue
Catalog44818
NameFLOCK 4P-5
Epoch Orbit23033
Epoch Day12.75532853
Epoch Year2024
RAAN92.3164
Inclination97.3287
Eccentricity0.0006078
Argument of Perigee295.2334
Mean Anonmoly64.8298
Mean Motion15.69328538
Decay Rate0.00235959
L11 44818U 19081Q 24012.75532853 .00235959 00000+0 19684-2 0 9993
L22 44818 97.3287 92.3164 0006078 295.2334 64.8298 15.69328538230335



Live tracking and technical data element details for FLOCK 4P-5 (NORAD 44818). FLOCK 4P-5 can be tracked NOW for your location showing map with azimuth and elevation plus other details from your city location.







IsCatalogInMostPopularTable: catalog: 44818, numindb: 390
Update: records affected: 1



GetName: 44818 FLOCK 4P-5

Hit Count: updated at: Mon, 18 May 2026 09:39:26 GMT